Location: Clarion
(42.7316°N, 93.7330°W)
Time: 08:44:14
(UTC+00:00)

Cosmos 2100 Rocket - Pass Details

Date: 22 April 2026
Orbit: 956 x 999 km, 82.9° (Epoch: 17 May)

Event Time Altitude Azimuth Distance (km) Brightness Sun altitude
Exits shadow 05:00:01 66° 320° (NW) 1,043 4.2 -32.5°
Drops below altitude 10° 05:05:35 10° 4° (N) 2,713 7.0 -32.9°
Sets 05:08:07 0° 6° (N) 3,670 7.9 -33.1°
